Regional Weather Roundup
Issued by NWS State College, PA

Home | Current Version | Previous Version | Graphics & Text | Print | Product List | Glossary On
Versions: 1 2 3 4 5 6 7 8 9 10 11 12 13 14 15 16 17 18 19 20 21 22 23 24 25 26 27 28 29 30 31 32 33 34 35 36 37 38 39 40 41 42 43 44 45 46 47 48 49 50
000
ASUS41 KCTP 242003
RWRCTP

REGIONAL WEATHER ROUNDUP
NATIONAL WEATHER SERVICE STATE COLLEGE PA
400 PM EDT FRI MAR 24 2017

Note: "fair" indicates few or no clouds below 12,000 feet with no
significant weather and/or obstructions to visibility.

* = STATION THAT DOES NOT REPORT PRECIPITATION /E.G. RAIN...SNOW...ETC/
    THUNDER OR FOG.

PAZ002>004-007>009-013>016-020>023-029>032-242100-
WESTERN PENNSYLVANIA

CITY           SKY/WX    TMP DP  RH WIND       PRES   REMARKS
ERIE           CLOUDY    70  49  47 SW10G17   29.97F
MEADVILLE      MOSUNNY   68  49  50 SW13G30   30.02F
FRANKLIN*      MOSUNNY   68  48  49 W15G25    30.06F
NEW CASTLE     FAIR      72  51  47 SW12G21   30.05F
BEAVER COUNTY  SUNNY     72  48  43 SW17G28   30.07F
BUTLER*        MOSUNNY   72  50  46 SW15G26   30.08F
PITTSBURGH INT PTSUNNY   73  49  42 SW17G26   30.07F
PITTSBURGH     CLOUDY    72  46  39 SW20G28   30.08F
INDIANA*       SUNNY     70  50  49 SW10G20   30.11F
LATROBE        MOSUNNY   72  50  46 SW17G23   30.11F
WASHINGTON CO* CLOUDY    73  48  40 SW14G24   30.12F
$$

PAZ004>006-010>012-017>019-024>028-033>037-041-042-045-046-049>053-242100-
CENTRAL PENNSYLVANIA

CITY           SKY/WX    TMP DP  RH WIND       PRES   REMARKS
BRADFORD       CLOUDY    63  46  54 W9G18     30.03S
DUBOIS         CLOUDY    67  45  45 SW15      30.05F
CLEARFIELD       N/A    N/A N/A N/A MISG      30.06F
JOHNSTOWN      CLOUDY    66  49  54 SW15G23   30.11F
ALTOONA        CLOUDY    67  49  52 S12G17    30.10F
STATE COLLEGE  SUNNY     61  43  51 SW13      30.09F
WILLIAMSPORT   CLOUDY    51  35  54 E13G18    30.10F
SELINSGROVE    CLOUDY    52  38  58 S10       30.14F
FT INDIANTOWN  CLOUDY    55  40  59 SW12      30.15F
CAPITAL CITY   MOSUNNY   56  38  50 SW13      30.17F
HARRISBURG     CLOUDY    55  40  56 SW12G18   30.16F
YORK           MOSUNNY   57  41  55 S12       30.17F
$$

PAZ038>040-043-044-047-048-054-055-060>062-067>071-242100-
EASTERN PENNSYLVANIA

CITY           SKY/WX    TMP DP  RH WIND       PRES   REMARKS
SCRANTON       CLOUDY    46  34  62 W8        30.11F
MOUNT POCONO   CLOUDY    42  33  70 SW14G23   30.10F
ALLENTOWN      MOSUNNY   53  31  42 S12       30.17F
QUAKERTOWN*    PTCLDY    52  34  50 SW12      30.18F
READING        MOSUNNY   55  39  54 S14G23    30.16F
LANCASTER      CLOUDY    57  41  55 S13       30.17F
COATESVILLE    PTCLDY    52  36  54 S8        30.20F
POTTSTOWN      MOSUNNY   52  33  48 SW10      30.20F
BLUE BELL      MOSUNNY   52  34  50 SW10G20   30.19F
DOYLESTOWN     SUNNY     44  33  65 SW14G20   30.18F
WILLOW GROVE   NOT AVBL
NORTH PHILA    MOSUNNY   57  33  40 SW16G22   30.21F
PHILADELPHIA   PTSUNNY   57  33  40 SW15G25   30.22F
$$



USA.gov is the U.S. government's official web portal to all federal, state and local government web resources and services.